Calumet, MI

3:53 AM EST on February 24, 2017 (GMT -0500)
Houghton County Memorial

Weather History for KCMX - February, 2013

Change the Weather History Date:

Saturday, February 23, 2013

  Actual Average Record
Temperature  
Mean Temperature 26 °F -  
Max Temperature 28 °F 26 °F 45 °F (1998)
Min Temperature 23 °F 12 °F -13 °F (1967)
Degree Days  
Heating Degree Days 40    
Moisture  
Dew Point 24 °F    
Average Humidity 89    
Maximum Humidity 100    
Minimum Humidity 78    
Precipitation  
Precipitation 0.08 in - - ()
Sea Level Pressure  
Sea Level Pressure 29.75 in    
Wind  
Wind Speed 6 mph (North)    
Max Wind Speed 14 mph    
Max Gust Speed 22 mph    
Visibility 4 miles    
Events Fog , Snow    
Averages and records for this station are not official NWS values.
T = Trace of Precipitation, MM = Missing Value Source: NWS Daily Summary

Daily Weather History Graph

Daily Weather History Graph

Search for Another Location

Airport or City:

Trip Planner

Search our weather history database for the weather conditions in past years. The results will help you decide how hot, cold, wet, or windy it might be!

Date:

Astronomy

Feb. 23, 2013 Rise Set
Actual Time 7:44 AM EST 6:30 PM EST
Civil Twilight 7:13 AM EST 7:01 PM EST
Nautical Twilight 6:38 AM EST 7:37 PM EST
Astronomical Twilight 6:02 AM EST 8:12 PM EST
Moon 4:36 PM EST (2/23) 6:12 AM EST (2/23)
Length of Visible Light 11h 48m
Length of Day
10h 46m
Waxing Gibbous, 95% of the Moon is Illuminated
Feb 23
Waxing Gibbous
Feb 25
Full
Mar 4
Last Quarter
Mar 11
New
Mar 19
First Quarter

Hourly Weather History & Observations

Time (EST) Temp. Windchill Dew Point Humidity Pressure Visibility Wind Dir Wind Speed Gust Speed Precip Events Conditions
12:53 AM 24.1 °F 19.7 °F 21.9 °F 91% 29.82 in 2.0 mi NNW 3.5 mph - 0.01 in Snow Light Snow
1:03 AM 24.8 °F 20.5 °F 21.2 °F 86% 29.76 in 4.0 mi NW 3.5 mph - 0.01 in Snow Light Snow
1:26 AM 24.8 °F 17.9 °F 21.2 °F 86% 29.75 in 1.8 mi NW 5.8 mph - 0.01 in Snow Light Snow
1:34 AM 23.0 °F 17.0 °F 21.2 °F 93% 29.75 in 2.0 mi NW 4.6 mph - 0.01 in Snow Light Snow
1:45 AM 23.0 °F 17.0 °F 21.2 °F 93% 29.74 in 3.0 mi NW 4.6 mph - 0.01 in Snow Light Snow
1:53 AM 24.1 °F 18.2 °F 21.9 °F 91% 29.79 in 2.5 mi NW 4.6 mph - 0.01 in Snow Light Snow
2:07 AM 24.8 °F 19.1 °F 21.2 °F 86% 29.74 in 1.2 mi NW 4.6 mph - 0.00 in Snow Light Snow
2:20 AM 24.8 °F 19.1 °F 23.0 °F 93% 29.73 in 1.5 mi NW 4.6 mph - 0.01 in Snow Light Snow
2:53 AM 24.1 °F 18.2 °F 23.0 °F 96% 29.78 in 1.5 mi NW 4.6 mph - 0.02 in Snow Light Snow
3:09 AM 24.8 °F 19.1 °F 23.0 °F 93% 29.73 in 1.5 mi NW 4.6 mph - 0.00 in Snow Light Snow
3:41 AM 24.8 °F 19.1 °F 24.8 °F 100% 29.72 in 1.8 mi NNW 4.6 mph - 0.01 in Snow Light Snow
3:47 AM 24.8 °F 19.1 °F 24.8 °F 100% 29.72 in 1.0 mi NNW 4.6 mph - 0.01 in Snow Light Snow
3:48 AM 24.8 °F 19.1 °F 24.8 °F 100% 29.72 in 0.8 mi NNW 4.6 mph - 0.01 in Snow Light Snow
3:53 AM 25.0 °F 19.3 °F 24.1 °F 96% 29.76 in 0.5 mi NNW 4.6 mph - 0.02 in Fog , Snow Snow
4:06 AM 24.8 °F 19.1 °F 24.8 °F 100% 29.72 in 0.8 mi NNW 4.6 mph - 0.01 in Snow Light Snow
4:13 AM 26.6 °F 22.6 °F 24.8 °F 93% 29.72 in 0.8 mi NNE 3.5 mph - 0.01 in Snow Light Snow
4:30 AM 26.6 °F 20.0 °F 24.8 °F 93% 29.71 in 1.2 mi NE 5.8 mph - 0.01 in Snow Light Snow
4:46 AM 26.6 °F 19.1 °F 24.8 °F 93% 29.71 in 2.5 mi NE 6.9 mph - 0.01 in Snow Light Snow
4:53 AM 27.0 °F 19.5 °F 25.0 °F 92% 29.76 in 2.5 mi NNE 6.9 mph - 0.01 in Snow Light Snow
5:01 AM 26.6 °F 20.0 °F 24.8 °F 93% 29.71 in 2.0 mi NNE 5.8 mph - 0.01 in Snow Light Snow
5:17 AM 26.6 °F 19.1 °F 24.8 °F 93% 29.71 in 3.0 mi NNE 6.9 mph - 0.01 in Snow Light Snow
5:28 AM 26.6 °F 19.1 °F 24.8 °F 93% 29.71 in 3.0 mi NNE 6.9 mph - 0.01 in Snow Light Snow
5:53 AM 27.0 °F 19.5 °F 25.0 °F 92% 29.75 in 4.0 mi NNE 6.9 mph - 0.01 in Snow Light Snow
6:53 AM 26.1 °F 20.5 °F 24.1 °F 92% 29.75 in 4.0 mi North 4.6 mph - 0.00 in Snow Light Snow
7:53 AM 26.1 °F 21.9 °F 24.1 °F 92% 29.75 in 1.8 mi NNW 3.5 mph - 0.00 in Snow Light Snow
8:07 AM 26.6 °F 21.2 °F 24.8 °F 93% 29.71 in 2.0 mi North 4.6 mph - 0.00 in Snow Light Snow
8:17 AM 26.6 °F 21.2 °F 24.8 °F 93% 29.71 in 1.8 mi North 4.6 mph - 0.00 in Snow Light Snow
8:30 AM 26.6 °F 20.0 °F 24.8 °F 93% 29.71 in 2.5 mi North 5.8 mph - 0.00 in Snow Light Snow
8:45 AM 26.6 °F 18.2 °F 24.8 °F 93% 29.70 in 3.0 mi North 8.1 mph - 0.00 in Snow Light Snow
8:53 AM 27.0 °F 18.0 °F 24.1 °F 89% 29.75 in 2.5 mi North 9.2 mph - 0.00 in Snow Light Snow
9:06 AM 28.4 °F 19.1 °F 24.8 °F 86% 29.70 in 3.0 mi NNE 10.4 mph - 0.00 in Snow Light Snow
9:53 AM 28.0 °F 17.5 °F 25.0 °F 88% 29.75 in 2.0 mi NNE 12.7 mph - 0.00 in Snow Light Snow
10:06 AM 28.4 °F 19.1 °F 24.8 °F 86% 29.71 in 3.0 mi North 10.4 mph - 0.00 in Snow Light Snow
10:21 AM 28.4 °F 19.1 °F 24.8 °F 86% 29.71 in 3.0 mi North 10.4 mph - 0.00 in Snow Light Snow
10:32 AM 28.4 °F 20.4 °F 24.8 °F 86% 29.71 in 1.8 mi North 8.1 mph - 0.00 in Snow Light Snow
10:40 AM 28.4 °F 19.1 °F 24.8 °F 86% 29.71 in 2.0 mi North 10.4 mph - 0.00 in Snow Light Snow
10:46 AM 28.4 °F 18.5 °F 24.8 °F 86% 29.71 in 3.0 mi North 11.5 mph - 0.00 in Snow Light Snow
10:53 AM 28.0 °F 18.6 °F 24.1 °F 85% 29.76 in 1.8 mi North 10.4 mph - 0.00 in Snow Light Snow
11:18 AM 28.4 °F 18.5 °F 24.8 °F 86% 29.71 in 2.0 mi North 11.5 mph - 0.00 in Snow Light Snow
11:29 AM 28.4 °F 17.5 °F 24.8 °F 86% 29.71 in 4.0 mi NNE 13.8 mph 21.9 mph 0.00 in Snow Light Snow
11:53 AM 28.9 °F 18.2 °F 24.1 °F 82% 29.76 in 10.0 mi NNE 13.8 mph - 0.00 in   Overcast
12:28 PM 28.4 °F 18.5 °F 23.0 °F 80% 29.72 in 10.0 mi North 11.5 mph - N/A   Overcast
12:53 PM 28.9 °F 19.2 °F 23.0 °F 78% 29.76 in 10.0 mi North 11.5 mph - N/A   Overcast
1:53 PM 28.9 °F 18.6 °F 25.0 °F 85% 29.77 in 2.0 mi NNW 12.7 mph - 0.00 in Snow Light Snow
2:16 PM 28.4 °F 17.5 °F 24.8 °F 86% 29.73 in 5.0 mi NNW 13.8 mph - 0.00 in   Overcast
2:29 PM 28.4 °F 17.5 °F 24.8 °F 86% 29.73 in 2.0 mi North 13.8 mph - 0.00 in Snow Light Snow
2:53 PM 27.0 °F 15.6 °F 24.1 °F 89% 29.78 in 3.0 mi North 13.8 mph - 0.00 in Snow Light Snow
3:53 PM 26.1 °F 16.2 °F 23.0 °F 88% 29.80 in 10.0 mi NNW 10.4 mph - 0.00 in   Overcast
4:50 PM 26.6 °F 17.5 °F 23.0 °F 86% 29.76 in 10.0 mi North 9.2 mph - 0.00 in   Overcast
4:53 PM 27.0 °F 18.7 °F 23.0 °F 85% 29.81 in 10.0 mi North 8.1 mph - 0.00 in   Overcast
5:07 PM 26.6 °F 17.5 °F 23.0 °F 86% 29.76 in 10.0 mi North 9.2 mph - N/A   Overcast
5:25 PM 26.6 °F 17.5 °F 23.0 °F 86% 29.77 in 10.0 mi NNW 9.2 mph - N/A   Overcast
5:53 PM 26.1 °F 17.6 °F 23.0 °F 88% 29.83 in 8.0 mi NNW 8.1 mph - 0.00 in   Overcast
6:53 PM 26.1 °F 19.4 °F 23.0 °F 88% 29.84 in 10.0 mi North 5.8 mph - 0.00 in   Overcast
7:53 PM 26.1 °F 19.4 °F 21.9 °F 84% 29.85 in 10.0 mi NNW 5.8 mph - N/A   Overcast
8:53 PM 25.0 °F 18.1 °F 21.9 °F 88% 29.87 in 10.0 mi North 5.8 mph - N/A   Overcast
9:49 PM 24.8 °F 16.1 °F 21.2 °F 86% 29.82 in 10.0 mi NW 8.1 mph - N/A   Overcast
9:53 PM 25.0 °F 16.3 °F 21.9 °F 88% 29.88 in 10.0 mi NW 8.1 mph - N/A   Overcast
10:53 PM 25.0 °F 16.3 °F 21.0 °F 85% 29.88 in 10.0 mi NNW 8.1 mph - N/A   Overcast
11:53 PM 24.1 °F 16.0 °F 21.9 °F 91% 29.89 in 10.0 mi NW 6.9 mph - N/A   Overcast